Theta_e
328 327 330 334 335 337 339 341 343 342 343 342 344 345 345 344 343 343 342 342 341 341 341 340 340 342 346 345 345 348 344 342 344
326 330 332 331 326 330 333 341 342 344 343 342 344 345 344 344 344 343 342 342 342 342 343 343 343 343 345 346 345 346 345 342 346
328 333 333 334 334 333 338 340 340 343 347 344 345 346 344 344 344 344 343 342 341 343 344 344 344 344 345 346 346 347 342 339 344
326 329 326 327 331 332 337 339 340 345 345 346 347 347 347 345 345 343 342 342 344 346 345 346 344 344 346 346 346 346 346 344 345
328 330 328 329 331 332 332 333 340 339 346 347 348 349 347 346 346 343 340 340 341 345 345 345 344 344 345 346 346 346 346 344 347
328 327 326 327 325 326 327 328 329 332 336 348 349 349 347 346 345 343 341 340 339 342 345 345 345 345 345 345 346 347 346 348 347
325 326 325 323 323 324 327 329 329 329 331 335 348 350 349 345 345 344 343 342 340 341 341 343 344 345 344 345 346 346 347 346 344
323 323 325 323 321 322 324 328 331 335 337 332 341 348 348 348 347 346 345 343 342 341 340 342 343 343 340 340 344 347 345 347 345
318 318 321 323 326 327 330 330 328 335 337 337 338 346 348 350 347 344 345 344 344 342 341 341 341 340 342 339 339 338 339 344 342
316 318 319 318 319 320 319 323 328 333 334 337 342 346 347 348 347 343 343 344 344 342 341 342 340 340 340 339 338 333 335 340 343
314 315 315 316 317 317 319 320 323 330 331 336 338 339 344 346 345 345 343 343 344 344 343 341 341 341 341 339 339 333 333 336 341
313 313 314 314 316 317 316 316 321 326 325 334 334 336 342 344 343 345 343 343 342 343 343 342 342 342 341 341 342 330 330 332 339
314 314 314 314 316 315 313 312 316 319 320 326 331 335 339 342 344 344 345 344 343 344 344 343 343 342 343 339 342 329 327 330 339
312 312 312 314 314 313 312 312 313 315 318 321 330 336 339 339 339 344 346 345 344 344 344 344 343 342 343 344 342 341 325 323 338
309 310 311 313 312 313 313 313 313 313 314 320 328 336 337 334 335 340 348 345 343 344 344 342 342 342 342 345 346 331 323 321 327
310 310 311 312 312 311 313 313 313 312 315 320 324 334 332 331 332 335 338 343 342 341 342 343 341 342 342 342 345 345 325 320 320
309 311 311 312 311 310 311 313 314 314 317 322 326 332 329 329 330 329 332 339 342 342 341 341 341 340 341 342 343 345 343 335 326
313 313 313 313 311 311 311 313 314 317 318 319 321 326 329 328 328 328 330 330 328 338 328 327 339 338 339 338 338 339 331 330 332
313 313 313 311 311 311 313 315 316 317 316 316 319 321 326 326 326 325 328 332 327 316 312 315 315 311 322 328 314 313 307 307 309
313 314 313 312 312 313 314 314 314 315 315 315 317 319 323 324 322 325 327 330 329 323 318 310 309 308 309 312 312 310 308 304 304
Wind_Speed
11 14 16 15 10 6 8 7 7 7 7 10 11 12 11 8 8 7 6 6 4 5 6 6 5 6 6 5 5 5 5 3 3
12 14 17 16 9 2 5 4 8 7 7 6 9 12 8 9 9 10 9 7 6 5 5 5 6 6 6 6 5 5 5 4 4
14 14 12 10 6 4 4 5 7 11 9 10 10 9 8 8 10 9 8 5 7 8 6 6 6 6 6 5 6 5 6 5 3
9 10 12 9 5 6 12 3 3 4 10 11 10 10 8 9 9 7 6 6 7 7 6 5 6 5 5 6 6 6 5 5 5
4 6 5 7 8 8 10 5 3 6 4 8 11 11 8 11 9 7 7 7 7 6 6 5 6 5 5 6 7 6 7 7 6
4 5 5 6 4 7 8 7 6 7 3 3 8 8 9 8 9 8 9 9 7 8 8 7 6 6 6 6 8 8 8 7 7
6 5 5 3 4 4 6 8 9 9 4 4 6 8 9 9 10 11 10 9 8 10 8 7 7 6 6 7 7 7 7 6 5
8 6 4 3 2 3 6 7 8 9 8 7 7 8 10 13 12 10 9 9 9 8 8 9 8 7 7 6 6 6 7 7 8
5 6 5 3 3 4 6 8 7 4 6 6 5 8 12 13 7 9 10 11 10 8 9 8 7 7 8 7 6 8 10 9 6
6 5 3 2 3 4 5 5 4 4 5 4 6 7 8 9 8 8 10 10 10 10 10 9 10 9 8 9 9 12 12 13 6
1 3 4 4 3 3 5 5 4 5 7 5 5 6 8 7 10 10 9 11 13 12 10 11 10 10 10 9 8 14 15 13 7
4 4 6 6 3 5 7 8 8 6 4 5 6 6 6 6 7 11 9 13 14 13 11 10 12 12 12 12 10 14 15 9 7
6 5 3 5 6 6 4 6 5 7 8 6 7 6 6 6 6 9 13 12 11 11 10 12 9 12 12 15 13 14 15 12 5
6 5 7 6 6 6 6 5 5 7 6 6 7 7 6 5 4 7 11 11 11 11 11 10 10 11 11 12 13 11 17 15 7
10 9 8 8 6 6 7 6 4 7 8 9 6 6 7 6 5 4 5 9 10 10 10 12 12 11 9 9 10 12 14 16 17
12 11 9 7 7 8 7 7 5 7 8 7 9 7 7 7 5 5 5 5 8 7 9 9 10 11 10 9 7 7 13 17 16
10 10 10 11 8 8 8 7 7 7 7 7 8 8 7 6 6 4 2 5 7 7 5 6 7 9 10 9 8 9 8 8 8
16 13 12 10 10 9 10 9 8 7 7 5 7 8 8 6 5 4 3 1 4 5 6 5 10 3 4 4 5 5 7 10 8
14 14 12 9 10 9 11 11 11 9 8 7 7 8 7 6 4 4 2 4 4 9 8 25 22 4 6 6 9 12 6 14 11
16 15 14 13 14 13 12 12 12 9 8 7 7 7 9 5 5 4 3 5 8 8 5 11 20 26 25 15 10 5 6 6 15
Wind_Direction
45 84 108 112 102 140 150 165 183 203 207 191 190 196 194 193 196 208 206 202 185 209 209 194 184 202 205 207 208 195 209 212 197
55 114 130 127 113 126 321 217 183 183 188 208 214 202 190 193 198 204 208 201 196 198 203 191 185 211 201 197 201 197 191 199 220
87 104 110 114 128 51 76 193 182 179 179 198 207 212 194 208 200 203 204 179 195 203 200 201 185 204 194 190 196 193 197 201 205
105 131 141 146 143 151 207 183 311 259 179 181 195 200 202 191 205 201 193 194 195 204 181 189 184 195 187 189 200 201 190 210 209
66 103 122 163 190 206 225 180 32 359 303 200 203 205 193 202 197 189 192 205 192 173 187 181 201 201 208 193 202 207 200 195 210
86 95 108 189 223 272 9 2 207 155 253 253 220 206 199 201 198 194 209 210 191 180 187 189 201 201 208 208 210 204 203 203 205
123 113 106 76 349 319 297 317 315 319 284 232 277 201 197 202 208 207 202 217 200 187 189 196 195 205 211 219 216 205 198 193 196
104 102 104 122 191 258 294 301 304 321 314 241 205 237 203 217 205 212 192 202 212 202 191 202 195 193 203 212 216 210 190 197 196
57 89 95 125 210 252 277 283 300 305 7 305 253 251 229 232 196 204 199 200 203 199 200 198 194 205 208 197 216 225 210 199 199
2 13 51 43 330 289 269 271 308 357 357 330 336 283 257 236 222 200 204 202 198 212 200 189 199 205 199 212 205 216 222 219 210
6 311 348 329 259 311 325 319 298 351 358 340 327 314 272 235 224 220 201 191 201 203 204 201 195 204 210 211 215 205 213 214 216
271 277 264 253 301 321 327 334 332 354 325 304 317 313 323 283 240 234 212 207 208 206 192 202 206 205 203 204 215 202 210 194 200
307 293 269 298 264 217 249 307 313 322 320 319 299 289 293 294 253 238 237 219 209 208 206 203 200 209 207 209 213 200 204 198 193
263 260 277 292 309 315 306 320 322 310 291 269 254 272 263 280 282 258 244 233 220 204 205 211 198 205 210 211 211 205 199 191 190
275 276 277 265 260 272 285 284 310 302 299 287 289 272 272 277 274 274 264 242 225 222 200 199 204 204 212 214 214 211 202 189 200
266 265 272 252 244 254 267 279 257 275 270 293 299 267 266 278 275 271 267 254 236 232 223 210 212 199 210 221 213 217 203 199 199
266 267 268 259 245 249 252 253 257 245 270 285 292 278 271 278 290 299 300 264 279 208 199 247 231 219 211 203 203 210 207 211 204
277 273 269 261 249 251 252 254 246 244 259 272 288 281 272 261 264 290 307 83 281 220 161 139 290 252 213 221 220 269 240 179 181
264 267 266 255 251 247 258 259 252 244 241 242 251 276 271 254 258 264 225 161 75 359 132 116 116 220 152 140 126 49 7 286 195
265 262 260 259 250 251 254 256 255 251 232 229 236 249 266 254 232 243 198 187 163 152 216 246 169 169 152 133 133 82 5 284 279